| time (UTC) | temp F | wind direction | speed knots | gust knots | rain 1hr in | rain 24hr in | rain mn in | humidity % | barometer mb |
| 20260507190100 | 58 | 293 | 0.9 | 6.1 | 0.00 | 0.26 | 0.26 | 50 | 1007.9 |
| 20260507185057 | 57 | 239 | 1.7 | 8.7 | 0.00 | 0.26 | 0.26 | 50 | 1007.9 |
| 20260507184605 | 57 | 260 | 2.6 | 10.4 | 0.00 | 0.26 | 0.26 | 49 | 1008.1 |
| 20260507184058 | 57 | 163 | 2.6 | 10.4 | 0.00 | 0.26 | 0.26 | 50 | 1007.8 |
| 20260507183557 | 57 | 258 | 3.5 | 9.6 | 0.00 | 0.26 | 0.26 | 49 | 1007.8 |
| 20260507183057 | 57 | 195 | 3.5 | 10.4 | 0.00 | 0.26 | 0.26 | 50 | 1007.5 |
| 20260507182557 | 57 | 241 | 4.3 | 10.4 | 0.00 | 0.26 | 0.26 | 50 | 1007.5 |
| 20260507182058 | 57 | 157 | 1.7 | 9.6 | 0.00 | 0.26 | 0.26 | 51 | 1006.9 |
| 20260507181604 | 57 | 150 | 2.6 | 8.7 | 0.00 | 0.26 | 0.26 | 51 | 1007.2 |
| 20260507181057 | 57 | 238 | 2.6 | 8.7 | 0.00 | 0.26 | 0.26 | 51 | 1006.7 |
| 20260507180559 | 57 | 146 | 3.5 | 15.6 | 0.00 | 0.26 | 0.26 | 50 | 1006.5 |
| 20260507180055 | 57 | 209 | 3.5 | 15.6 | 0.00 | 0.26 | 0.26 | 52 | 1006.6 |
| 20260507175057 | 57 | 229 | 5.2 | 12.2 | 0.00 | 0.26 | 0.26 | 52 | 1005.9 |
| 20260507174604 | 57 | 172 | 4.3 | 10.4 | 0.00 | 0.26 | 0.26 | 53 | 1005.8 |
| 20260507174057 | 56 | 163 | 4.3 | 10.4 | 0.00 | 0.26 | 0.26 | 55 | 1005.4 |
| 20260507173555 | 56 | 211 | 3.5 | 12.2 | 0.00 | 0.26 | 0.26 | 58 | 1005.2 |
| 20260507173055 | 55 | 248 | 6.1 | 12.2 | 0.00 | 0.26 | 0.26 | 61 | 1005.5 |
| 20260507172558 | 55 | 215 | 5.2 | 13.0 | 0.00 | 0.26 | 0.26 | 66 | 1005.4 |
| 20260507172055 | 54 | 179 | 6.1 | 14.8 | 0.00 | 0.26 | 0.26 | 67 | 1005.2 |
| 20260507171602 | 53 | 149 | 4.3 | 14.8 | 0.00 | 0.26 | 0.26 | 69 | 1006.4 |
| 20260507171054 | 52 | 209 | 5.2 | 12.2 | 0.00 | 0.26 | 0.26 | 70 | 1006.6 |
| 20260507170553 | 52 | 198 | 4.3 | 12.2 | 0.00 | 0.26 | 0.26 | 70 | 1006.2 |
| 20260507170053 | 52 | 243 | 3.5 | 12.2 | 0.00 | 0.26 | 0.26 | 71 | 1006.2 |
| 20260507165051 | 52 | 163 | 4.3 | 10.4 | 0.01 | 0.26 | 0.26 | 71 | 1005.4 |
| 20260507164550 | 52 | 195 | 4.3 | 10.4 | 0.01 | 0.26 | 0.26 | 71 | 1006.2 |
| 20260507164056 | 52 | 163 | 3.5 | 7.0 | 0.01 | 0.26 | 0.26 | 71 | 1005.9 |
| 20260507163548 | 52 | 134 | 2.6 | 7.0 | 0.02 | 0.26 | 0.26 | 71 | 1006.1 |
| 20260507163047 | 52 | 205 | 2.6 | 8.7 | 0.02 | 0.26 | 0.26 | 71 | 1006.9 |
| 20260507162547 | 52 | 160 | 3.5 | 7.8 | 0.04 | 0.26 | 0.26 | 71 | 1007.6 |
| 20260507162047 | 52 | 179 | 1.7 | 7.8 | 0.06 | 0.26 | 0.26 | 71 | 1008.1 |
| 20260507161546 | 51 | 230 | 2.6 | 7.8 | 0.08 | 0.26 | 0.26 | 71 | 1008.6 |
| 20260507161046 | 51 | 155 | 1.7 | 6.1 | 0.09 | 0.26 | 0.26 | 71 | 1009.0 |
| 20260507160545 | 51 | 240 | 1.7 | 8.7 | 0.09 | 0.26 | 0.26 | 70 | 1009.5 |
| 20260507160045 | 51 | 220 | 2.6 | 8.7 | 0.10 | 0.26 | 0.26 | 70 | 1009.9 |
| 20260507155044 | 52 | 243 | 2.6 | 9.6 | 0.09 | 0.25 | 0.25 | 70 | 1011.9 |
| 20260507154547 | 52 | 278 | 3.5 | 9.6 | 0.09 | 0.25 | 0.25 | 70 | 1011.7 |
| 20260507154043 | 52 | 275 | 3.5 | 8.7 | 0.09 | 0.25 | 0.25 | 70 | 1011.0 |
| 20260507153541 | 52 | 243 | 1.7 | 9.6 | 0.09 | 0.24 | 0.24 | 68 | 1009.9 |
| 20260507153048 | 52 | 170 | 4.3 | 7.8 | 0.09 | 0.24 | 0.24 | 66 | 1009.5 |
| 20260507152538 | 53 | 179 | 2.6 | 7.8 | 0.07 | 0.23 | 0.23 | 61 | 1009.8 |
| 20260507152038 | 54 | 195 | 1.7 | 10.4 | 0.06 | 0.21 | 0.21 | 60 | 1009.4 |
| 20260507151536 | 54 | 210 | 1.7 | 13.0 | 0.04 | 0.20 | 0.20 | 60 | 1009.2 |
| 20260507151034 | 55 | 181 | 7.0 | 12.2 | 0.02 | 0.18 | 0.18 | 58 | 1007.7 |
| 20260507150533 | 55 | 164 | 3.5 | 7.0 | 0.01 | 0.17 | 0.17 | 57 | 1010.0 |
| 20260507150039 | 56 | 246 | 0.0 | 4.3 | 0.01 | 0.17 | 0.17 | 58 | 1011.8 |
| 20260507145033 | 57 | 277 | 3.5 | 12.2 | 0.00 | 0.16 | 0.16 | 55 | 1011.7 |
| 20260507144532 | 57 | 263 | 7.0 | 14.8 | 0.00 | 0.16 | 0.16 | 53 | 1010.7 |
| 20260507144033 | 57 | 249 | 5.2 | 14.8 | 0.00 | 0.16 | 0.16 | 53 | 1009.5 |
| 20260507143533 | 57 | 129 | 6.1 | 13.9 | 0.00 | 0.16 | 0.16 | 52 | 1008.2 |
| 20260507143035 | 57 | 177 | 3.5 | 16.5 | 0.00 | 0.16 | 0.16 | 53 | 1008.7 |
| 20260507142531 | 57 | 228 | 5.2 | 14.8 | 0.00 | 0.16 | 0.16 | 53 | 1008.7 |
| 20260507142032 | 58 | 192 | 6.1 | 14.8 | 0.01 | 0.16 | 0.16 | 53 | 1008.3 |
| 20260507141531 | 58 | 222 | 7.0 | 16.5 | 0.04 | 0.16 | 0.16 | 53 | 1007.8 |
| 20260507141031 | 58 | 156 | 7.0 | 18.2 | 0.04 | 0.16 | 0.16 | 52 | 1008.0 |
| 20260507140532 | 58 | 166 | 8.7 | 18.2 | 0.04 | 0.16 | 0.16 | 52 | 1007.5 |
| 20260507140029 | 58 | 173 | 8.7 | 23.5 | 0.04 | 0.16 | 0.16 | 53 | 1007.7 |
| 20260507135030 | 58 | 149 | 8.7 | 17.4 | 0.04 | 0.16 | 0.16 | 53 | 1008.2 |
| 20260507134531 | 57 | 166 | 8.7 | 16.5 | 0.04 | 0.16 | 0.16 | 53 | 1008.5 |
| 20260507134028 | 57 | 149 | 8.7 | 16.5 | 0.04 | 0.16 | 0.16 | 56 | 1008.8 |
| 20260507133527 | 56 | 187 | 7.8 | 13.9 | 0.04 | 0.16 | 0.16 | 59 | 1009.2 |
| 20260507133027 | 56 | 144 | 7.8 | 13.9 | 0.04 | 0.16 | 0.16 | 59 | 1009.5 |
| 20260507132524 | 57 | 255 | 6.1 | 9.6 | 0.04 | 0.16 | 0.16 | 57 | 1010.2 |
| 20260507132023 | 58 | 156 | 3.5 | 12.2 | 0.03 | 0.15 | 0.15 | 54 | 1010.7 |
| 20260507131530 | 60 | 173 | 5.2 | 13.9 | 0.01 | 0.13 | 0.13 | 48 | 1010.1 |
| 20260507131022 | 61 | 150 | 4.3 | 13.9 | 0.00 | 0.12 | 0.12 | 44 | 1010.8 |
| 20260507130521 | 61 | 276 | 7.0 | 13.9 | 0.00 | 0.12 | 0.12 | 45 | 1011.5 |
| 20260507130018 | 61 | 236 | 4.3 | 12.2 | 0.00 | 0.12 | 0.12 | 45 | 1009.6 |
| 20260507125016 | 61 | 170 | 9.6 | 18.2 | 0.00 | 0.12 | 0.12 | 45 | 1006.5 |
| 20260507124514 | 61 | 147 | 9.6 | 18.2 | 0.00 | 0.12 | 0.12 | 44 | 1006.2 |
| 20260507124016 | 62 | 170 | 8.7 | 21.7 | 0.00 | 0.12 | 0.12 | 44 | 1006.3 |
| 20260507123513 | 62 | 171 | 11.3 | 19.1 | 0.00 | 0.12 | 0.12 | 45 | 1006.4 |
| 20260507123012 | 62 | 160 | 8.7 | 18.2 | 0.00 | 0.12 | 0.12 | 46 | 1006.4 |
| 20260507122510 | 62 | 194 | 6.1 | 17.4 | 0.00 | 0.12 | 0.12 | 47 | 1006.8 |
| 20260507122010 | 62 | 172 | 6.1 | 15.6 | 0.00 | 0.12 | 0.12 | 48 | 1006.3 |
| 20260507121508 | 63 | 196 | 7.8 | 15.6 | 0.00 | 0.12 | 0.12 | 49 | 1006.0 |
| 20260507121007 | 63 | 170 | 6.1 | 14.8 | 0.00 | 0.12 | 0.12 | 50 | 1005.8 |
| 20260507120505 | 63 | 168 | 6.1 | 14.8 | 0.00 | 0.12 | 0.12 | 55 | 1005.8 |
| 20260507120013 | 63 | 148 | 6.1 | 11.3 | 0.00 | 0.12 | 0.12 | 58 | 1005.3 |
| 20260507115002 | 63 | 154 | 7.0 | 13.0 | 0.00 | 0.12 | 0.12 | 57 | 1005.0 |
| 20260507114502 | 63 | 158 | 6.1 | 13.0 | 0.00 | 0.12 | 0.12 | 57 | 1004.9 |
| 20260507114001 | 63 | 149 | 6.1 | 14.8 | 0.00 | 0.12 | 0.12 | 57 | 1004.8 |
| 20260507113500 | 63 | 165 | 7.0 | 15.6 | 0.00 | 0.12 | 0.12 | 58 | 1004.9 |
| 20260507113102 | 63 | 163 | 8.7 | 15.6 | 0.00 | 0.12 | 0.12 | 58 | 1004.7 |
| 20260507112602 | 63 | 163 | 5.2 | 14.8 | 0.00 | 0.12 | 0.12 | 59 | 1004.7 |
| 20260507112101 | 63 | 138 | 9.6 | 15.6 | 0.00 | 0.12 | 0.12 | 59 | 1004.5 |
| 20260507111606 | 63 | 144 | 7.8 | 18.2 | 0.00 | 0.12 | 0.12 | 59 | 1004.3 |
| 20260507111056 | 63 | 158 | 8.7 | 18.2 | 0.00 | 0.12 | 0.12 | 59 | 1004.0 |
| 20260507110556 | 64 | 156 | 8.7 | 17.4 | 0.00 | 0.12 | 0.12 | 60 | 1004.0 |
| 20260507105055 | 64 | 136 | 7.8 | 22.6 | 0.00 | 0.12 | 0.12 | 61 | 1003.6 |
| 20260507104554 | 64 | 253 | 11.3 | 17.4 | 0.00 | 0.12 | 0.12 | 61 | 1003.4 |
| 20260507104054 | 64 | 168 | 7.8 | 17.4 | 0.00 | 0.12 | 0.12 | 62 | 1003.2 |
| 20260507103553 | 64 | 142 | 8.7 | 19.1 | 0.00 | 0.12 | 0.12 | 61 | 1003.2 |
| 20260507103053 | 64 | 153 | 9.6 | 20.9 | 0.00 | 0.12 | 0.12 | 61 | 1003.1 |
| 20260507102552 | 64 | 156 | 10.4 | 20.9 | 0.00 | 0.12 | 0.12 | 61 | 1002.8 |
| 20260507102051 | 64 | 149 | 7.0 | 24.3 | 0.00 | 0.12 | 0.12 | 62 | 1002.9 |
| 20260507101602 | 64 | 156 | 12.2 | 24.3 | 0.00 | 0.12 | 0.12 | 62 | 1003.0 |
| 20260507101050 | 64 | 162 | 10.4 | 22.6 | 0.00 | 0.12 | 0.12 | 63 | 1002.6 |
| 20260507100549 | 64 | 182 | 8.7 | 20.0 | 0.00 | 0.12 | 0.12 | 65 | 1002.9 |
| 20260507100048 | 64 | 175 | 7.0 | 18.2 | 0.00 | 0.12 | 0.12 | 67 | 1002.7 |
| 20260507095046 | 64 | 119 | 8.7 | 16.5 | 0.00 | 0.12 | 0.12 | 69 | 1002.6 |
| 20260507094546 | 64 | 157 | 5.2 | 15.6 | 0.00 | 0.12 | 0.12 | 70 | 1002.6 |
| 20260507094043 | 63 | 198 | 6.1 | 15.6 | 0.00 | 0.12 | 0.12 | 70 | 1002.7 |
| 20260507093543 | 63 | 158 | 7.8 | 18.2 | 0.00 | 0.12 | 0.12 | 70 | 1002.8 |
| 20260507093049 | 63 | 152 | 7.8 | 16.5 | 0.01 | 0.12 | 0.12 | 70 | 1002.9 |
| 20260507092542 | 63 | 135 | 7.0 | 13.9 | 0.08 | 0.12 | 0.12 | 70 | 1003.0 |
| 20260507092040 | 63 | 164 | 5.2 | 13.9 | 0.10 | 0.12 | 0.12 | 70 | 1003.2 |
| 20260507091546 | 63 | 133 | 5.2 | 12.2 | 0.11 | 0.12 | 0.12 | 70 | 1002.9 |
| 20260507091040 | 63 | 161 | 6.1 | 12.2 | 0.11 | 0.12 | 0.12 | 70 | 1002.8 |
| 20260507090538 | 64 | 154 | 5.2 | 10.4 | 0.11 | 0.12 | 0.12 | 70 | 1002.5 |
| 20260507090039 | 64 | 160 | 5.2 | 10.4 | 0.11 | 0.12 | 0.12 | 70 | 1002.7 |
| 20260507085036 | 64 | 147 | 5.2 | 12.2 | 0.11 | 0.12 | 0.12 | 70 | 1002.2 |
| 20260507084635 | 64 | 156 | 6.1 | 10.4 | 0.11 | 0.12 | 0.12 | 70 | 1002.1 |
| 20260507084035 | 64 | 186 | 5.2 | 11.3 | 0.12 | 0.12 | 0.12 | 69 | 1002.2 |
| 20260507083535 | 64 | 161 | 7.0 | 13.9 | 0.12 | 0.12 | 0.12 | 69 | 1002.5 |
| 20260507083034 | 64 | 155 | 5.2 | 19.1 | 0.12 | 0.12 | 0.12 | 67 | 1002.6 |
| 20260507082533 | 66 | 159 | 10.4 | 19.1 | 0.09 | 0.09 | 0.09 | 57 | 1002.7 |
| 20260507082031 | 66 | 206 | 4.3 | 8.7 | 0.02 | 0.02 | 0.02 | 57 | 1002.8 |
| 20260507081541 | 66 | 201 | 3.5 | 8.7 | 0.01 | 0.01 | 0.01 | 57 | 1002.8 |
| 20260507081028 | 67 | 180 | 0.9 | 8.7 | 0.01 | 0.01 | 0.01 | 57 | 1003.0 |
| 20260507080527 | 67 | 235 | 1.7 | 8.7 | 0.01 | 0.01 | 0.01 | 57 | 1002.4 |
| 20260507080027 | 67 | 235 | 4.3 | 9.6 | 0.01 | 0.01 | 0.01 | 57 | 1001.8 |
| 20260507075029 | 67 | 242 | 5.2 | 11.3 | 0.01 | 0.01 | 0.01 | 57 | 1001.5 |
| 20260507074544 | 68 | 190 | 6.1 | 11.3 | 0.01 | 0.01 | 0.01 | 57 | 1001.6 |
| 20260507074028 | 68 | 148 | 4.3 | 13.9 | 0.00 | 0.00 | 0.00 | 57 | 1001.9 |
| 20260507073523 | 69 | 169 | 7.8 | 13.9 | 0.00 | 0.00 | 0.00 | 56 | 1001.5 |
| 20260507073022 | 69 | 208 | 5.2 | 14.8 | 0.00 | 0.00 | 0.00 | 55 | 1002.2 |
| 20260507072524 | 69 | 193 | 5.2 | 16.5 | 0.00 | 0.00 | 0.00 | 55 | 1001.5 |
| 20260507072020 | 70 | 160 | 4.3 | 13.9 | 0.00 | 0.00 | 0.00 | 54 | 1001.3 |
| 20260507071519 | 70 | 198 | 6.1 | 13.9 | 0.00 | 0.00 | 0.00 | 53 | 1001.3 |
| 20260507071018 | 71 | 169 | 6.1 | 15.6 | 0.00 | 0.00 | 0.00 | 53 | 1001.6 |
| 20260507070519 | 71 | 204 | 7.0 | 13.0 | 0.00 | 0.00 | 0.00 | 52 | 1001.4 |
| 20260507070020 | 71 | 193 | 5.2 | 13.0 | 0.00 | 0.00 | 0.00 | 52 | 1001.5 |
| 20260507065013 | 73 | 172 | 6.1 | 10.4 | 0.00 | 0.00 | 0.00 | 51 | 1001.4 |
| 20260507064511 | 73 | 217 | 3.5 | 9.6 | 0.00 | 0.00 | 0.00 | 51 | 1001.4 |
| 20260507064011 | 73 | 179 | 4.3 | 10.4 | 0.00 | 0.00 | 0.00 | 52 | 1001.4 |
| 20260507063510 | 73 | 172 | 3.5 | 9.6 | 0.00 | 0.00 | 0.00 | 53 | 1001.4 |
| 20260507063018 | 73 | 152 | 3.5 | 7.0 | 0.00 | 0.00 | 0.00 | 56 | 1001.4 |
| 20260507062508 | 73 | 296 | 0.0 | 0.0 | 0.00 | 0.00 | 0.00 | 56 | 1001.0 |
| 20260507062009 | 73 | 296 | 0.0 | 0.0 | 0.00 | 0.00 | 0.00 | 56 | 1000.9 |
| 20260507061509 | 73 | 296 | 0.0 | 0.0 | 0.00 | 0.00 | 0.00 | 56 | 1000.9 |
| 20260507061008 | 73 | 296 | 0.0 | 0.0 | 0.00 | 0.00 | 0.00 | 56 | 1000.9 |
| 20260507060508 | 73 | 296 | 0.0 | 0.0 | 0.00 | 0.00 | 0.00 | 56 | 1000.9 |
| 20260507060008 | 73 | 296 | 0.0 | 0.0 | 0.00 | 0.00 | 0.00 | 57 | 1000.8 |
| 20260507055005 | 73 | 296 | 0.0 | 0.0 | 0.00 | 0.00 | 0.00 | 57 | 1000.9 |
| 20260507054505 | 74 | 297 | 0.0 | 1.7 | 0.00 | 0.00 | 0.00 | 57 | 1000.9 |
| 20260507054005 | 74 | 296 | 0.0 | 1.7 | 0.00 | 0.00 | 0.00 | 57 | 1001.1 |
| 20260507053507 | 74 | 297 | 0.0 | 0.9 | 0.00 | 0.00 | 0.00 | 57 | 1001.2 |
| 20260507053004 | 74 | 296 | 0.0 | 0.9 | 0.00 | 0.00 | 0.00 | 57 | 1001.2 |
| 20260507052503 | 74 | 296 | 0.0 | 0.0 | 0.00 | 0.00 | 0.00 | 57 | 1001.3 |
| 20260507052003 | 74 | 296 | 0.0 | 0.0 | 0.00 | 0.00 | 0.00 | 57 | 1001.5 |
| 20260507051503 | 74 | 297 | 0.0 | 0.0 | 0.00 | 0.00 | 0.00 | 57 | 1001.5 |
| 20260507051003 | 74 | 296 | 0.0 | 0.9 | 0.00 | 0.00 | 0.00 | 57 | 1001.6 |
| 20260507050503 | 74 | 297 | 0.0 | 0.9 | 0.00 | 0.00 | 0.00 | 57 | 1001.5 |
| 20260507050008 | 74 | 296 | 0.0 | 0.9 | 0.00 | 0.00 | 0.00 | 57 | 1001.4 |
| 20260507045003 | 74 | 297 | 0.0 | 0.9 | 0.00 | 0.00 | 0.00 | 58 | 1001.2 |
| 20260507044502 | 74 | 296 | 0.0 | 0.9 | 0.00 | 0.00 | 0.00 | 58 | 1001.3 |
| 20260507044002 | 74 | 296 | 0.0 | 1.7 | 0.00 | 0.00 | 0.00 | 58 | 1001.3 |
| 20260507043501 | 74 | 296 | 0.0 | 1.7 | 0.00 | 0.00 | 0.00 | 58 | 1001.2 |
| 20260507043103 | 74 | 296 | 0.0 | 0.9 | 0.00 | 0.00 | 0.00 | 58 | 1001.3 |
| 20260507043001 | 74 | 296 | 0.0 | 0.9 | 0.00 | 0.00 | 0.00 | 58 | 1001.3 |
| 20260507042502 | 74 | 296 | 0.0 | 0.9 | 0.00 | 0.00 | 0.00 | 58 | 1001.4 |
| 20260507042100 | 74 | 296 | 0.0 | 1.7 | 0.00 | 0.00 | 0.00 | 58 | 1001.5 |
| 20260507041604 | 74 | 296 | 0.0 | 1.7 | 0.00 | 0.00 | 0.00 | 58 | 1001.4 |
| 20260507041103 | 74 | 295 | 0.0 | 1.7 | 0.00 | 0.00 | 0.00 | 58 | 1001.5 |
| 20260507040601 | 75 | 294 | 0.0 | 1.7 | 0.00 | 0.00 | 0.00 | 58 | 1001.3 |
| 20260507040058 | 75 | 294 | 0.0 | 2.6 | 0.00 | 0.00 | 0.00 | 58 | 1001.3 |
| 20260507035658 | 75 | 294 | 0.0 | 2.6 | 0.00 | 0.00 | 0.00 | 58 | 1001.5 |
| 20260507035058 | 75 | 293 | 0.0 | 1.7 | 0.00 | 0.00 | 0.00 | 58 | 1001.6 |
| 20260507034601 | 75 | 293 | 0.0 | 1.7 | 0.00 | 0.00 | 0.00 | 58 | 1001.7 |
| 20260507034056 | 75 | 293 | 0.0 | 0.9 | 0.00 | 0.00 | 0.00 | 58 | 1001.7 |
| 20260507033558 | 75 | 293 | 0.0 | 0.9 | 0.00 | 0.00 | 0.00 | 58 | 1001.8 |
| 20260507033104 | 75 | 293 | 0.0 | 0.9 | 0.00 | 0.00 | 0.00 | 58 | 1001.9 |
| 20260507032557 | 75 | 293 | 0.0 | 0.9 | 0.00 | 0.00 | 0.00 | 58 | 1002.0 |
| 20260507032056 | 75 | 293 | 0.0 | 2.6 | 0.00 | 0.00 | 0.00 | 58 | 1002.0 |
| 20260507031606 | 75 | 293 | 0.0 | 2.6 | 0.00 | 0.00 | 0.00 | 58 | 1002.0 |
| 20260507031056 | 75 | 274 | 0.0 | 1.7 | 0.00 | 0.00 | 0.00 | 58 | 1001.9 |
| 20260507030555 | 75 | 329 | 0.0 | 0.9 | 0.00 | 0.00 | 0.00 | 58 | 1001.9 |
| 20260507030057 | 75 | 329 | 0.0 | 0.9 | 0.00 | 0.00 | 0.00 | 58 | 1002.1 |
| 20260507025653 | 75 | 329 | 0.0 | 0.9 | 0.00 | 0.00 | 0.00 | 58 | 1002.1 |
| 20260507025055 | 75 | 329 | 0.0 | 0.0 | 0.00 | 0.00 | 0.00 | 58 | 1002.1 |
| 20260507024628 | 75 | 329 | 0.0 | 0.9 | 0.00 | 0.00 | 0.00 | 58 | 1002.1 |
| 20260507024054 | 75 | 329 | 0.0 | 0.9 | 0.00 | 0.00 | 0.00 | 58 | 1002.1 |
| 20260507023103 | 75 | 329 | 0.0 | 0.9 | 0.00 | 0.00 | 0.00 | 58 | 1002.1 |
| 20260507022553 | 75 | 329 | 0.0 | 1.7 | 0.00 | 0.00 | 0.00 | 58 | 1002.1 |
| 20260507022054 | 75 | 329 | 0.0 | 1.7 | 0.00 | 0.00 | 0.00 | 58 | 1002.1 |
| 20260507021553 | 76 | 291 | 0.0 | 3.5 | 0.00 | 0.00 | 0.00 | 58 | 1002.0 |
| 20260507021057 | 76 | 46 | 0.9 | 4.3 | 0.00 | 0.00 | 0.00 | 57 | 1002.0 |
| 20260507020553 | 76 | 335 | 0.0 | 4.3 | 0.00 | 0.00 | 0.00 | 57 | 1001.9 |
| 20260507020056 | 76 | 284 | 0.0 | 3.5 | 0.00 | 0.00 | 0.00 | 57 | 1001.9 |
| 20260507015652 | 76 | 357 | 0.9 | 4.3 | 0.00 | 0.00 | 0.00 | 57 | 1001.7 |
| 20260507015054 | 76 | 326 | 1.7 | 5.2 | 0.00 | 0.00 | 0.00 | 57 | 1001.8 |
| 20260507014603 | 76 | 24 | 0.9 | 5.2 | 0.00 | 0.00 | 0.00 | 57 | 1001.7 |
| 20260507014056 | 76 | 23 | 0.9 | 5.2 | 0.00 | 0.00 | 0.00 | 57 | 1001.5 |
| 20260507013556 | 76 | 328 | 0.9 | 6.1 | 0.00 | 0.00 | 0.00 | 57 | 1001.6 |
| 20260507013054 | 76 | 348 | 2.6 | 6.1 | 0.00 | 0.00 | 0.00 | 57 | 1001.5 |
| 20260507012555 | 76 | 308 | 2.6 | 8.7 | 0.00 | 0.00 | 0.00 | 57 | 1001.6 |
| 20260507012056 | 76 | 38 | 2.6 | 8.7 | 0.00 | 0.00 | 0.00 | 56 | 1001.6 |
| 20260507011554 | 76 | 347 | 1.7 | 7.0 | 0.00 | 0.00 | 0.00 | 56 | 1001.5 |
| 20260507011054 | 76 | 343 | 1.7 | 7.0 | 0.00 | 0.00 | 0.00 | 56 | 1001.6 |
| 20260507011011 | 76 | 33 | 2.6 | 7.0 | 0.00 | 0.00 | 0.00 | 56 | 1001.6 |
| 20260507010651 | 76 | 359 | 2.6 | 11.3 | 0.00 | 0.00 | 0.00 | 56 | 1001.5 |
| 20260507010051 | 76 | 21 | 3.5 | 11.3 | 0.00 | 0.00 | 0.00 | 56 | 1001.4 |
| 20260507005653 | 76 | 350 | 3.5 | 7.8 | 0.00 | 0.00 | 0.00 | 57 | 1001.6 |
| 20260507005017 | 76 | 352 | 3.5 | 7.8 | 0.00 | 0.00 | 0.00 | 57 | 1001.5 |
| 20260507004518 | 76 | 11 | 2.6 | 7.0 | 0.00 | 0.00 | 0.00 | 57 | 1001.5 |
| 20260507004018 | 77 | 61 | 1.7 | 5.2 | 0.00 | 0.00 | 0.00 | 56 | 1001.4 |
| 20260507003515 | 77 | 29 | 2.6 | 5.2 | 0.00 | 0.00 | 0.00 | 56 | 1001.5 |
| 20260507003013 | 77 | 25 | 1.7 | 5.2 | 0.00 | 0.00 | 0.00 | 56 | 1001.5 |
| 20260507002513 | 77 | 33 | 0.0 | 5.2 | 0.00 | 0.00 | 0.00 | 56 | 1001.5 |
| 20260507002013 | 77 | 42 | 0.0 | 6.1 | 0.00 | 0.00 | 0.00 | 56 | 1001.5 |
| 20260507001521 | 77 | 27 | 2.6 | 6.1 | 0.00 | 0.00 | 0.00 | 56 | 1001.3 |
| 20260507001017 | 77 | 359 | 2.6 | 7.0 | 0.00 | 0.00 | 0.00 | 56 | 1001.1 |
| 20260507000512 | 77 | 49 | 2.6 | 8.7 | 0.00 | 0.00 | 0.00 | 56 | 1001.1 |
| 20260507000016 | 77 | 347 | 1.7 | 8.7 | 0.00 | 0.00 | 0.00 | 55 | 1001.1 |
| 20260506235050 | 78 | 352 | 2.6 | 7.8 | 0.00 | 0.00 | 0.00 | 55 | 1000.8 |
| 20260506234547 | 78 | 49 | 3.5 | 7.8 | 0.00 | 0.00 | 0.00 | 55 | 1000.7 |
| 20260506234047 | 78 | 73 | 2.6 | 8.7 | 0.00 | 0.00 | 0.00 | 54 | 1000.8 |
| 20260506233547 | 78 | 333 | 4.3 | 8.7 | 0.00 | 0.00 | 0.00 | 54 | 1000.8 |
| 20260506233100 | 78 | 360 | 4.3 | 9.6 | 0.00 | 0.00 | 0.00 | 54 | 1000.8 |
| 20260506232546 | 79 | 5 | 2.6 | 8.7 | 0.00 | 0.00 | 0.00 | 54 | 1001.1 |
| 20260506232046 | 79 | 333 | 3.5 | 8.7 | 0.00 | 0.00 | 0.00 | 53 | 1001.1 |
| 20260506231545 | 79 | 27 | 3.5 | 7.8 | 0.00 | 0.00 | 0.00 | 53 | 1001.0 |
| 20260506231045 | 79 | 345 | 3.5 | 7.8 | 0.00 | 0.00 | 0.00 | 52 | 1001.0 |
| 20260506230547 | 79 | 36 | 2.6 | 10.4 | 0.00 | 0.00 | 0.00 | 52 | 1000.8 |
| 20260506230046 | 80 | 355 | 3.5 | 8.7 | 0.00 | 0.00 | 0.00 | 51 | 1000.9 |
| 20260506225648 | 80 | 320 | 4.3 | 11.3 | 0.00 | 0.00 | 0.00 | 51 | 1001.1 |
| 20260506225044 | 80 | 48 | 3.5 | 8.7 | 0.00 | 0.00 | 0.00 | 50 | 1001.0 |
| 20260506224544 | 80 | 6 | 4.3 | 8.7 | 0.00 | 0.00 | 0.00 | 50 | 1001.2 |
| 20260506224043 | 80 | 55 | 2.6 | 8.7 | 0.00 | 0.00 | 0.00 | 50 | 1001.1 |
| 20260506223543 | 81 | 42 | 2.6 | 8.7 | 0.00 | 0.00 | 0.00 | 50 | 1001.1 |
| 20260506223043 | 81 | 300 | 4.3 | 11.3 | 0.00 | 0.00 | 0.00 | 49 | 1000.8 |
| 20260506222543 | 81 | 320 | 5.2 | 11.3 | 0.00 | 0.00 | 0.00 | 49 | 1000.9 |
| 20260506222043 | 81 | 333 | 4.3 | 13.0 | 0.00 | 0.00 | 0.00 | 49 | 1000.8 |
| 20260506221542 | 82 | 329 | 6.1 | 11.3 | 0.00 | 0.00 | 0.00 | 49 | 1000.9 |
| 20260506221041 | 82 | 44 | 6.1 | 11.3 | 0.00 | 0.00 | 0.00 | 49 | 1000.9 |
| 20260506220542 | 81 | 37 | 3.5 | 8.7 | 0.00 | 0.00 | 0.00 | 49 | 1001.2 |
| 20260506220039 | 82 | 357 | 2.6 | 6.1 | 0.00 | 0.00 | 0.00 | 48 | 1001.4 |
| 20260506215638 | 82 | 8 | 4.3 | 8.7 | 0.00 | 0.00 | 0.00 | 48 | 1001.7 |
| 20260506215039 | 82 | 32 | 2.6 | 8.7 | 0.00 | 0.00 | 0.00 | 48 | 1001.8 |
| 20260506214539 | 82 | 335 | 3.5 | 9.6 | 0.00 | 0.00 | 0.00 | 48 | 1001.7 |
| 20260506214039 | 83 | 300 | 3.5 | 9.6 | 0.00 | 0.00 | 0.00 | 48 | 1001.6 |
| 20260506213538 | 83 | 337 | 1.7 | 8.7 | 0.00 | 0.00 | 0.00 | 48 | 1001.6 |
| 20260506213038 | 83 | 10 | 2.6 | 7.8 | 0.00 | 0.00 | 0.00 | 48 | 1001.7 |
| 20260506212538 | 84 | 295 | 3.5 | 7.8 | 0.00 | 0.00 | 0.00 | 47 | 1001.7 |
| 20260506212038 | 84 | 350 | 3.5 | 6.1 | 0.00 | 0.00 | 0.00 | 47 | 1001.7 |
| 20260506211536 | 84 | 350 | 2.6 | 6.1 | 0.00 | 0.00 | 0.00 | 46 | 1001.8 |
| 20260506211038 | 85 | 305 | 1.7 | 9.6 | 0.00 | 0.00 | 0.00 | 46 | 1002.0 |
| 20260506210536 | 85 | 347 | 2.6 | 9.6 | 0.00 | 0.00 | 0.00 | 45 | 1001.9 |
| 20260506210035 | 86 | 321 | 3.5 | 8.7 | 0.00 | 0.00 | 0.00 | 45 | 1001.9 |
| 20260506205537 | 86 | 30 | 3.5 | 8.7 | 0.00 | 0.00 | 0.00 | 44 | 1001.9 |
| 20260506205037 | 86 | 17 | 2.6 | 8.7 | 0.00 | 0.00 | 0.00 | 44 | 1002.0 |
| 20260506204536 | 86 | 356 | 1.7 | 8.7 | 0.00 | 0.00 | 0.00 | 44 | 1002.0 |
| 20260506204033 | 87 | 314 | 1.7 | 9.6 | 0.00 | 0.00 | 0.00 | 44 | 1002.0 |
| 20260506203534 | 87 | 5 | 3.5 | 9.6 | 0.00 | 0.00 | 0.00 | 44 | 1001.9 |
| 20260506203036 | 87 | 313 | 5.2 | 8.7 | 0.00 | 0.00 | 0.00 | 43 | 1001.9 |
| 20260506202635 | 87 | 346 | 2.6 | 7.8 | 0.00 | 0.00 | 0.00 | 43 | 1002.1 |
| 20260506202035 | 87 | 345 | 3.5 | 8.7 | 0.00 | 0.00 | 0.00 | 43 | 1002.0 |
| 20260506201535 | 87 | 310 | 4.3 | 10.4 | 0.00 | 0.00 | 0.00 | 43 | 1002.0 |
| 20260506201034 | 87 | 349 | 4.3 | 10.4 | 0.00 | 0.00 | 0.00 | 43 | 1002.0 |
| 20260506200534 | 87 | 308 | 2.6 | 13.0 | 0.00 | 0.00 | 0.00 | 43 | 1002.1 |
| 20260506200034 | 87 | 15 | 3.5 | 13.0 | 0.00 | 0.00 | 0.00 | 43 | 1002.1 |
| 20260506195533 | 87 | 302 | 3.5 | 10.4 | 0.00 | 0.00 | 0.00 | 44 | 1002.0 |
| 20260506195037 | 87 | 349 | 5.2 | 10.4 | 0.00 | 0.00 | 0.00 | 44 | 1002.1 |
| 20260506194531 | 86 | 315 | 3.5 | 8.7 | 0.00 | 0.00 | 0.00 | 45 | 1002.2 |
| 20260506194031 | 86 | 15 | 2.6 | 8.7 | 0.00 | 0.00 | 0.00 | 45 | 1002.4 |
| 20260506193530 | 86 | 314 | 2.6 | 7.8 | 0.00 | 0.00 | 0.00 | 44 | 1002.5 |
| 20260506193032 | 86 | 344 | 2.6 | 7.8 | 0.00 | 0.00 | 0.00 | 44 | 1002.5 |
| 20260506192630 | 87 | 343 | 2.6 | 9.6 | 0.00 | 0.00 | 0.00 | 43 | 1002.3 |
| 20260506192027 | 87 | 326 | 4.3 | 9.6 | 0.00 | 0.00 | 0.00 | 43 | 1002.3 |
| 20260506191527 | 87 | 116 | 4.3 | 9.6 | 0.00 | 0.00 | 0.00 | 43 | 1002.3 |
| 20260506191038 | 87 | 349 | 3.5 | 10.4 | 0.00 | 0.00 | 0.00 | 43 | 1002.5 |
| 20260506190524 | 87 | 337 | 5.2 | 12.2 | 0.00 | 0.00 | 0.00 | 43 | 1002.3 |